OpenBCM V1.08-5-g2f4a (Linux)

Packet Radio Mailbox

IZ3LSV

[San Dona' di P. JN]

 Login: GUEST





  
I0OJJ  > KEPS     03.04.25 02:25l 331 Lines 15749 Bytes #14 (0) @ AMSAT
BID : ORB25093.1
Read: GUEST
Subj: 2Line Orbital Elements 25093.AMSAT
Path: IZ3LSV<I0OJJ
Sent: 250403/0025z @:I0OJJ.ITA.EU [Rome] obcm1.08-6-g5b69
From: I0OJJ @ I0OJJ.ITA.EU (Gustavo)
To:   KEPS @ AMSAT
X-Info: This message was generated automatically


QST de W1STR

AMSAT Orbital Elements for Amateur Satellites in TLE Format
From Orbital Analysis Office
New England Sci-Tech STEM Education Center
Natick, MA April 03, 2025
To all radio amateurs


These element sets describe the orbits of various satellites 
in use by the amateur radio community. For details see:
www.amsat.org/keplerian-elements-formats/

A daily update of element sets is available at:
www.amsat.org/tle/daily-bulletin.txt
or without bulletin text:
www.amsat.org/tle/dailytle.txt


AO-07
1 07530U 74089B   25092.89728443 -.00000045  00000-0  10123-4 0  9997
2 07530 101.9953  96.4368 0011891 250.8257 171.7176 12.53687816305588
UO-11
1 14781U 84021B   25092.87475755  .00003145  00000-0  33932-3 0  9998
2 14781  97.7481  60.6241 0007328 188.0933 172.0167 14.89071603212569
AO-27
1 22825U 93061C   25092.45417301  .00000258  00000-0  11576-3 0  9999
2 22825  98.7441 153.6487 0007555 317.8764  42.1837 14.30765638643973
FO-29
1 24278U 96046B   25092.43611546  .00000006  00000-0  40608-4 0  9994
2 24278  98.5826 355.2792 0350298 158.9834 202.6117 13.53242086413552
NOAA-15
1 25338U 98030A   25092.86603521  .00000331  00000-0  15382-3 0  9999
2 25338  98.5426 119.6065 0010105 191.1230 168.9729 14.26930279398745
GO-32
1 25397U 98043D   25092.90143384  .00000229  00000-0  11927-3 0  9996
2 25397  98.9654  70.6285 0002189  63.6257 296.5146 14.24287470388872
ISS
1 25544U 98067A   25092.82147860  .00030737  00000-0  56040-3 0  9992
2 25544  51.6359 320.2804 0003848   8.6235  45.9350 15.49173214503479
NO-44
1 26931U 01043C   25092.32543610  .00000370  00000-0  16963-3 0  9999
2 26931  67.0509 304.3090 0005580 268.9905  91.0557 14.31681135227333
SO-50
1 27607U 02058C   25092.30793487  .00004120  00000-0  53408-3 0  9996
2 27607  64.5552  51.2333 0048346 350.4728   9.5455 14.81310437199113
CO-55
1 27844U 03031E   25092.59176887  .00000770  00000-0  35492-3 0  9991
2 27844  98.6788 101.7371 0010219  31.6364 328.5427 14.23915285128966
CO-57
1 27848U 03031J   25092.50864157  .00000641  00000-0  30250-3 0  9994
2 27848  98.6818 101.7118 0010412  47.5033 312.7024 14.23261264128685
RS-22
1 27939U 03042A   25092.85644340  .00002882  00000-0  46624-3 0  9996
2 27939  98.3220 260.7022 0010888 220.0804 276.4998 14.72078544150863
NOAA-18
1 28654U 05018A   25092.81353326  .00000394  00000-0  23214-3 0  9999
2 28654  98.8440 173.0487 0013345 324.9744  35.0550 14.13563686 24174
CO-58
1 28895U 05043F   25092.35430756  .00004261  00000-0  70756-3 0  9996
2 28895  98.2386 235.9075 0015315 160.0558 200.1250 14.70626261 36915
CO-65
1 32785U 08021C   25092.87700486  .00011829  00000-0  87317-3 0  9994
2 32785  97.7781  63.6097 0011856  81.7995 278.4574 15.03360235918976
AAUSAT2
1 32788U 08021F   25092.52965107  .00255448  00000-0  26781-2 0  9996
2 32788  97.6048  87.1439 0006954 136.2538 223.9272 15.63541173922677
CO-66
1 32791U 08021J   25092.46619074  .00024863  00000-0  12823-2 0  9999
2 32791  97.7252  71.1133 0006455  63.9845 296.2051 15.16322887920163
RS-30
1 32953U 08025A   25092.87993189  .00000033  00000-0  16644-3 0  9999
2 32953  82.4976 269.2882 0019408 190.9877 169.0782 12.43161347765126
NOAA-19
1 33591U 09005A   25092.87970580  .00000343  00000-0  20693-3 0  9990
2 33591  99.0035 157.1883 0013739 190.8482 169.2396 14.13329100832549
SRMSAT
1 37841U 11058D   25092.51984385  .00000617  00000-0  19176-3 0  9990
2 37841  19.9708 206.4018 0011896  36.5655  50.1502 14.11401731695483
ZACUBE-1
1 39417U 13066B   25092.84235488  .00011245  00000-0  99546-3 0  9999
2 39417  97.7747  50.2843 0042592 279.0060  80.6341 14.95738194614784
Delfi-N3xt
1 39428U 13066N   25092.76856784  .00013101  00000-0  13704-2 0  9994
2 39428  97.8353  11.2390 0085342 222.9045 136.5493 14.87072287609175
GOMX-1
1 39430U 13066Q   25092.84672155  .00003886  00000-0  60939-3 0  9996
2 39430  97.6926 315.6476 0134483  49.6225 311.6629 14.67258298605475
LO-74
1 39440U 13066AA  25092.83306803  .00010494  00000-0  10763-2 0  9992
2 39440  97.8440  37.9211 0064592  44.8525 315.7886 14.89054018612558
AO-73
1 39444U 13066AE  25092.84970840  .00015247  00000-0  11805-2 0  9994
2 39444  97.7658  54.6182 0039400 254.8115 104.8750 15.00920517614013
DTUSAT-2
1 40030U 14033W   25091.86576265  .00014029  00000-0  94313-3 0  9999
2 40030  98.0498  60.4517 0007572 299.3296  60.7174 15.06863112586042
EO-80
1 40032U 14033Y   25092.42061255  .00013514  00000-0  90639-3 0  9997
2 40032  98.0391  60.7814 0006952 218.5550 141.5181 15.06962921586107
LILACSAT-2
1 40908U 15049K   25092.81582390  .00020081  00000-0  55851-3 0  9992
2 40908  97.5128 111.5977 0011063  53.3675 306.8585 15.36818427527819
IO-86
1 40931U 15052B   25038.81889873  .00001817  00000-0  15548-3 0  9993
2 40931   6.0001 108.1159 0012838 187.7041 172.2889 14.78568669506492
Horyu-4
1 41340U 16012D   25092.66583369  .00039126  00000-0  11833-2 0  9995
2 41340  30.9969 227.4769 0008853  74.9128 285.2495 15.32957243502342
Lapan A3
1 41603U 16040E   25092.85619663  .00006069  00000-0  21640-3 0  9994
2 41603  97.1400 100.1435 0012371 143.1323 217.0771 15.29176813487436
CAS-2T
1 41847U 16066G   25092.81615974  .00002245  00000-0  32716-3 0  9997
2 41847  98.4231 167.8620 0347335  23.6783 337.9966 14.43269583441240
CAS-4B
1 42759U 17034B   25092.87214581  .00074273  00000-0  11117-2 0  9992
2 42759  43.0108   2.7574 0017861 183.9690 176.1032 15.53875169432031
CAS-4A
1 42761U 17034D   25092.88422497  .00074732  00000-0  10890-2 0  9990
2 42761  43.0145   0.4098 0019361 188.4550 171.5987 15.54571465432056
TechnoSat
1 42829U 17042E   25092.73427902  .00007593  00000-0  59662-3 0  9996
2 42829  97.3922 264.6936 0014127 145.2536 214.9614 15.01070565420548
AO-91
1 43017U 17073E   25092.60291402  .00017534  00000-0  91768-3 0  9999
2 43017  97.5329 325.1180 0177895  38.2940 323.0763 15.03160918398991
S-Net D
1 43186U 18014G   25092.44017501  .00009036  00000-0  54645-3 0  9991
2 43186  97.5676 356.0648 0011282  97.5250 262.7261 15.10825867392089
S-Net B
1 43187U 18014H   25092.24603497  .00009081  00000-0  54935-3 0  9997
2 43187  97.5682 355.8411 0012073  94.1296 266.1314 15.10805263392056
S-Net A
1 43188U 18014J   25092.24210274  .00008874  00000-0  53661-3 0  9999
2 43188  97.5689 355.9786 0011942  94.8467 265.4126 15.10827026392055
S-Net C
1 43189U 18014K   25092.44698784  .00009353  00000-0  56540-3 0  9990
2 43189  97.5708 356.1837 0013545  88.0193 272.2588 15.10805178390634
Ten-Koh
1 43677U 18084G   25092.43764545  .00005526  00000-0  44804-3 0  9995
2 43677  98.0966 261.9778 0010417 139.7554 220.4442 15.00076833350025
PO-101
1 43678U 18084H   25092.86311983  .00004764  00000-0  41006-3 0  9991
2 43678  98.0991 266.4357 0008670 149.5563 210.6163 14.97848169350243
QO-100
1 43700U 18090A   25092.54341833  .00000136  00000-0  00000-0 0  9991
2 43700   0.0124 244.1511 0001437 159.9424   8.4798  1.00273875 23251
MinXSS-2
1 43758U 18099A   25092.72334772  .00029383  00000-0  12509-2 0  9991
2 43758  97.5078 158.6446 0012413  41.5473 318.6705 15.22872146346634
AO-95
1 43770U 18099N   25092.42238991  .00016986  00000-0  89745-3 0  9990
2 43770  97.4994 151.3099 0012544  92.3625 267.9044 15.15498760346221
RANGE-A
1 43773U 18099R   25092.42002225  .00009607  00000-0  62388-3 0  9998
2 43773  97.4567 142.8052 0012722  70.2748 289.9851 15.08179881345943
MOVE-II
1 43780U 18099Y   25092.43608961  .00142717  00000-0  23063-2 0  9992
2 43780  97.4718 164.1526 0000466  38.4579 321.6706 15.52346973347157
SNUSat 2
1 43782U 18099AA  25092.59769771  .00014365  00000-0  81141-3 0  9997
2 43782  97.4676 148.7735 0012722  36.4243 323.7852 15.13152101346212
SnugLite
1 43784U 18099AC  25092.40075321  .00016358  00000-0  85853-3 0  9998
2 43784  97.4491 148.0170 0004221  55.9728 304.1905 15.15801244346307
ITASat 1
1 43786U 18099AE  25092.13510357  .00010104  00000-0  59504-3 0  9990
2 43786  97.4646 148.0215 0016321  85.4398 274.8696 15.11691958346110
EAGLET 1
1 43790U 18099AJ  25092.43604122  .00008722  00000-0  56607-3 0  9996
2 43790  97.4836 148.4784 0013349  67.4593 292.8047 15.08224471345796
ESEO
1 43792U 18099AL  25092.60367629  .00003627  00000-0  27885-3 0  9990
2 43792  97.4582 142.7909 0012583  42.9628 317.2578 15.02253410345619
CSIM
1 43793U 18099AM  25092.54032091  .00141804  00000-0  22484-2 0  9995
2 43793  97.4906 166.3843 0003497 343.0109  17.1026 15.52877587347014
JO-97
1 43803U 18099AX  25092.70884533  .00021865  00000-0  10541-2 0  9996
2 43803  97.4735 152.4587 0007757  33.6497 326.5228 15.18702528346465
Suomi 100
1 43804U 18099AY  25092.42279332  .00017342  00000-0  88777-3 0  9993
2 43804  97.4798 151.6492 0012991  32.4418 327.7611 15.16603115346365
ISAT
1 43879U 18111D   25092.47105366  .00037030  00000-0  14197-2 0  9990
2 43879  97.5992   5.5102 0012280  81.0460 279.2167 15.26341486343294
UWE-4
1 43880U 18111E   25092.68160676  .00029494  00000-0  12457-2 0  9992
2 43880  97.5928   4.6417 0015348  88.8154 271.4841 15.23103334341282
Sparrow
1 43881U 18111F   25092.56921359  .00039336  00000-0  14616-2 0  9998
2 43881  97.6124   8.2405 0010094 110.4823 249.7500 15.27388858343391
Prox-1
1 44339U 19036A   25092.48054248  .00021507  00000-0  28737-2 0  9999
2 44339  23.9959 148.5426 0007016  23.3893 336.6922 14.78004782307927
SONATE
1 44400U 19038Q   25092.57223848  .00138901  00000-0  11919-2 0  9995
2 44400  97.7028 111.6704 0010735 134.1618 226.0526 15.68877910318835
Taurus 1
1 44530U 19059C   25092.85046489  .00015994  00000-0  30228-2 0  9997
2 44530  98.5979 229.1207 0010212 237.6343 122.3870 14.64449639294022
